Location: Hawks Ness
(60.2333°N, 1.1667°W)
Time: 22:07:31
(UTC+00:00)

Cosmos 1726 - Pass Details

Date: 27 January 2020
Orbit: 482 x 500 km, 82.5° (Epoch: 19 February)

Event Time Altitude Azimuth Distance (km) Brightness Sun altitude
Exits shadow 05:39:17 57° 344° (NNW) 581 2.2 -20.8°
Drops below altitude 10° 05:42:22 10° 11° (N) 1,682 4.9 -20.4°
Sets 05:44:29 0° 14° (NNE) 2,566 5.9 -20.1°
